EDT,Max TemperatureF,Mean TemperatureF,Min TemperatureF,Max Dew PointF,MeanDew PointF,Min DewpointF,Max Humidity, Mean Humidity, Min Humidity, Max Sea Level PressureIn, Mean Sea Level PressureIn, Min Sea Level PressureIn, Max VisibilityMiles, Mean VisibilityMiles, Min VisibilityMiles, Max Wind SpeedMPH, Mean Wind SpeedMPH, Max Gust SpeedMPH,PrecipitationIn, CloudCover, Events, WindDirDegrees
2013-6-1,89,76,63,65,63,60,93,68,43,30.00,29.92,29.83,10,10,9,17,4,30,0.00,2,,175
2013-6-2,86,78,69,66,62,55,74,56,37,29.82,29.78,29.74,10,10,10,21,7,25,T,3,,235
2013-6-3,78,66,53,60,53,35,84,61,37,29.99,29.87,29.81,10,10,10,14,5,17,0.00,5,,314
2013-6-4,75,61,46,45,40,35,82,53,23,30.14,30.07,30.01,10,10,10,16,5,23,0.00,0,,312
2013-6-5,77,62,46,50,44,37,86,58,29,30.22,30.12,30.03,10,10,10,18,3,23,0.00,1,,112
2013-6-6,69,64,59,58,53,46,90,67,44,30.04,29.97,29.87,10,9,2,18,10,30,0.35,8,Rain,100
2013-6-7,67,64,61,63,60,57,100,91,81,29.86,29.80,29.70,10,6,2,14,5,21,0.05,8,Rain,76
2013-6-8,74,65,55,59,57,52,90,70,49,30.10,29.90,29.73,10,10,10,14,6,17,0.00,6,,263
2013-6-9,80,66,52,59,54,51,100,70,39,30.20,30.15,30.10,10,7,0,9,3,12,0.00,4,Fog,262
2013-6-10,69,66,63,66,63,57,93,86,78,30.11,29.91,29.75,10,6,2,17,7,23,1.05,8,Rain,81
2013-6-11,76,69,61,65,62,57,100,79,58,29.80,29.73,29.70,10,6,0,22,7,28,0.09,7,Fog-Rain,269
2013-6-12,82,73,63,62,56,51,84,60,36,29.87,29.82,29.78,10,10,9,9,4,14,0.00,2,,295
2013-6-13,75,67,59,64,60,53,84,76,68,29.77,29.58,29.42,10,8,1,22,10,30,1.32,8,Rain-Thunderstorm,302
2013-6-14,79,69,58,55,52,51,87,63,39,29.96,29.82,29.68,10,10,10,16,6,22,T,4,,318
2013-6-15,80,67,54,56,53,50,93,65,36,30.05,29.99,29.95,10,10,10,16,6,21,0.00,1,,270
2013-6-16,79,68,57,62,58,53,87,71,54,30.01,29.88,29.79,10,10,10,23,5,31,T,4,Rain,269
2013-6-17,86,74,62,63,59,53,87,60,32,29.92,29.88,29.84,10,10,9,22,5,31,0.00,2,,266
2013-6-18,80,69,58,62,57,46,93,71,48,29.95,29.88,29.82,10,10,10,13,4,17,0.00,1,,338
2013-6-19,77,65,53,52,47,42,83,57,31,30.17,30.06,29.96,10,10,10,15,4,21,0.00,1,,303
2013-6-20,80,65,49,59,53,46,93,68,43,30.26,30.21,30.17,10,10,10,15,4,20,0.00,1,,138
2013-6-21,83,71,58,63,59,55,90,69,47,30.27,30.23,30.18,10,10,9,12,3,17,0.00,2,,143
2013-6-22,86,73,60,64,60,55,84,66,48,30.22,30.16,30.06,10,10,10,14,5,18,0.00,1,,114
2013-6-23,89,77,65,69,65,62,93,72,50,30.16,30.09,30.01,10,10,9,16,4,22,T,2,,139
2013-6-24,93,80,66,68,65,60,87,62,36,30.10,30.03,29.95,10,10,8,14,4,18,0.00,0,Thunderstorm,226
2013-6-25,89,78,66,70,66,64,93,70,46,29.99,29.93,29.83,10,7,2,6,7,8,0.24,3,Rain-Thunderstorm,263
2013-6-26,83,75,66,66,64,63,87,73,58,29.88,29.85,29.80,10,10,10,10,4,15,T,2,Rain,262
2013-6-27,82,73,64,72,66,62,97,78,58,29.82,29.70,29.55,10,5,1,10,2,13,1.02,7,Rain-Thunderstorm,238
2013-6-28,81,73,64,66,64,59,93,78,62,29.57,29.53,29.45,10,10,7,20,5,25,0.04,6,Rain-Thunderstorm,254
2013-6-29,84,73,62,63,61,58,93,67,40,29.69,29.57,29.50,10,9,6,14,4,18,0.00,5,,274
2013-6-30,86,74,62,70,64,60,100,74,48,29.90,29.78,29.70,10,8,1,20,3,24,0.01,3,Rain-Thunderstorm,109